Change the Weather History Date:

Saturday, February 4, 2012

  Actual Average Record
Temperature  
Mean Temperature 37 °F -  
Max Temperature 42 °F 44 °F 53 °F (2000)
Min Temperature 32 °F 32 °F 19 °F (2009)
Degree Days  
Heating Degree Days 28    
Moisture  
Dew Point 35 °F    
Average Humidity 89    
Maximum Humidity 100    
Minimum Humidity 81    
Precipitation  
Precipitation 0.00 in - - ()
Sea Level Pressure  
Sea Level Pressure 30.27 in    
Wind  
Wind Speed 7 mph ()    
Max Wind Speed 18 mph    
Max Gust Speed -    
Visibility 5.7 miles    
Events Rain    
Averages and records for this station are not official NWS values.
T = Trace of Precipitation, MM = Missing Value Source: Averaged Metar Reports

Daily Weather History Graph

Daily Weather History Graph

Search for Another Location

Airport or City:

Trip Planner

Search our weather history database for the weather conditions in past years. The results will help you decide how hot, cold, wet, or windy it might be!

Date:

Astronomy

Feb. 04, 2012 Rise Set
Actual Time 8:07 AM GMT 4:56 PM GMT
Civil Twilight 7:26 AM GMT 5:37 PM GMT
Nautical Twilight 6:42 AM GMT 6:21 PM GMT
Astronomical Twilight 5:59 AM GMT 7:04 PM GMT
Moon 1:15 PM GMT (2/4) 5:46 AM GMT (2/4)
Length of Visible Light 10h 10m
Length of Day
8h 49m
Waxing Gibbous, 87% of the Moon is Illuminated
Feb 4
Waxing Gibbous
Feb 7
Full
Feb 14
Last Quarter
Feb 21
New
Mar 1
First Quarter

Hourly Weather History & Observations

Time (GMT) Temp. Windchill Dew Point Humidity Pressure Visibility Wind Dir Wind Speed Gust Speed Precip Events Conditions
12:20 AM 32.0 °F 26.4 °F 30.2 °F 93% 30.54 in 5.6 mi ENE 5.8 mph - N/A   Partly Cloudy
12:50 AM 32.0 °F 27.5 °F 30.2 °F 93% 30.54 in 5.6 mi ENE 4.6 mph - N/A   Scattered Clouds
1:20 AM 32.0 °F 27.5 °F 30.2 °F 93% 30.54 in 6.2 mi ENE 4.6 mph - N/A   Mostly Cloudy
1:50 AM 33.8 °F 27.7 °F 30.2 °F 87% 30.51 in 6.2 mi East 6.9 mph - N/A   Overcast
2:20 AM 37.4 °F 33.8 °F 32.0 °F 81% 30.51 in 6.2 mi ENE 4.6 mph - N/A   Overcast
2:50 AM 37.4 °F 32.1 °F 32.0 °F 81% 30.51 in 6.2 mi NE 6.9 mph - N/A   Overcast
3:20 AM 35.6 °F 31.7 °F 32.0 °F 87% 30.48 in 6.2 mi ENE 4.6 mph - N/A   Overcast
3:50 AM 39.2 °F 35.9 °F 35.6 °F 87% 30.48 in 6.2 mi South 4.6 mph - N/A   Overcast
4:20 AM 39.2 °F 32.0 °F 35.6 °F 87% 30.45 in 6.2 mi South 11.5 mph - N/A   Overcast
4:50 AM 39.2 °F 33.6 °F 35.6 °F 87% 30.45 in 6.2 mi South 8.1 mph - N/A   Overcast
5:20 AM 39.2 °F 31.2 °F 35.6 °F 87% 30.45 in 6.2 mi South 13.8 mph - N/A Rain Light Rain
5:50 AM 39.2 °F 31.6 °F 35.6 °F 87% 30.42 in 4.3 mi South 12.7 mph - N/A Rain Light Rain
6:20 AM 39.2 °F 33.0 °F 35.6 °F 87% 30.42 in 5.0 mi South 9.2 mph - N/A Rain Light Rain
6:50 AM 39.2 °F 33.6 °F 35.6 °F 87% 30.39 in 6.2 mi South 8.1 mph - N/A Rain Light Rain
7:20 AM 39.2 °F 33.0 °F 35.6 °F 87% 30.39 in 6.2 mi South 9.2 mph - N/A Rain Light Rain
7:50 AM 39.2 °F 31.6 °F 35.6 °F 87% 30.39 in 6.2 mi SSE 12.7 mph - N/A   Mostly Cloudy
8:20 AM 39.2 °F 32.0 °F 35.6 °F 87% 30.36 in 6.2 mi SSE 11.5 mph - N/A Rain Light Rain
8:50 AM 39.2 °F 33.6 °F 35.6 °F 87% 30.36 in 6.2 mi SSE 8.1 mph - N/A Rain Light Rain
9:20 AM 39.2 °F 31.6 °F 35.6 °F 87% 30.33 in 5.0 mi South 12.7 mph - N/A Rain Light Rain
9:50 AM 39.2 °F 33.0 °F 35.6 °F 87% 30.33 in 6.2 mi South 9.2 mph - N/A Rain Light Rain
10:20 AM 37.4 °F 29.8 °F 35.6 °F 93% 30.30 in 5.6 mi South 11.5 mph - N/A Rain Light Rain
10:50 AM 37.4 °F 28.9 °F 35.6 °F 93% 30.27 in 6.2 mi South 13.8 mph - N/A Rain Light Rain
11:20 AM 39.2 °F 33.6 °F 35.6 °F 87% 30.27 in 6.2 mi SSE 8.1 mph - N/A Rain Light Rain
11:50 AM 39.2 °F 35.0 °F 35.6 °F 87% 30.24 in 6.2 mi Variable 5.8 mph - N/A Rain Light Rain
12:20 PM 39.2 °F 32.5 °F 35.6 °F 87% 30.21 in 6.2 mi South 10.4 mph - N/A Rain Light Rain
12:50 PM 39.2 °F 30.8 °F 33.8 °F 81% 30.18 in 6.2 mi South 15.0 mph - N/A Rain Light Rain
1:20 PM 39.2 °F 31.2 °F 35.6 °F 87% 30.15 in 4.3 mi South 13.8 mph - N/A Rain Rain
1:50 PM 39.2 °F 29.8 °F 37.4 °F 93% 30.15 in 2.5 mi South 18.4 mph - N/A Rain Rain
2:20 PM 39.2 °F 30.2 °F 37.4 °F 93% 30.12 in 2.2 mi South 17.3 mph - N/A Rain Rain
2:50 PM 41.0 °F 32.8 °F 37.4 °F 87% 30.09 in 3.7 mi South 16.1 mph - N/A Rain Rain
3:20 PM 41.0 °F 37.1 °F 39.2 °F 93% 30.09 in 1.9 mi Variable 5.8 mph - N/A Rain Rain
3:50 PM 42.8 °F 36.6 °F 41.0 °F 93% 30.09 in 6.2 mi SW 11.5 mph - N/A Rain Light Rain
4:20 PM 42.8 °F 38.6 °F 39.2 °F 87% 30.09 in 6.2 mi WNW 6.9 mph - N/A   Mostly Cloudy
4:50 PM 42.8 °F - 39.2 °F 87% 30.09 in 6.2 mi Calm Calm - N/A   Scattered Clouds
5:20 PM 39.2 °F 35.0 °F 37.4 °F 93% 30.09 in 6.2 mi West 5.8 mph - N/A   Scattered Clouds
5:50 PM 39.2 °F 34.2 °F 35.6 °F 87% 30.09 in 6.2 mi West 6.9 mph - N/A   Scattered Clouds
6:20 PM 37.4 °F 32.1 °F 35.6 °F 93% 30.12 in 5.6 mi West 6.9 mph - N/A   Scattered Clouds
6:50 PM 37.4 °F 34.9 °F 35.6 °F 93% 30.12 in 6.2 mi Variable 3.5 mph - N/A   Partly Cloudy
7:20 PM 35.6 °F 32.8 °F 33.8 °F 93% 30.12 in 6.2 mi Variable 3.5 mph - N/A Rain Light Rain
7:50 PM 37.4 °F 32.8 °F 33.8 °F 87% 30.12 in 6.2 mi WSW 5.8 mph - N/A   Scattered Clouds
8:20 PM 37.4 °F 31.4 °F 33.8 °F 87% 30.12 in 6.2 mi WSW 8.1 mph - N/A   Partly Cloudy
8:50 PM 37.4 °F 32.8 °F 35.6 °F 93% 30.15 in 6.2 mi WSW 5.8 mph - N/A   Partly Cloudy
9:20 PM 37.4 °F 30.8 °F 33.8 °F 87% 30.15 in 6.2 mi WSW 9.2 mph - N/A   Partly Cloudy
9:50 PM 33.8 °F 27.7 °F 32.0 °F 93% 30.15 in 6.2 mi SW 6.9 mph - N/A Rain Light Rain
10:20 PM 33.8 °F 25.8 °F 32.0 °F 93% 30.15 in 6.2 mi WSW 10.4 mph - N/A   Partly Cloudy
10:50 PM 33.8 °F 27.0 °F 32.0 °F 93% 30.15 in - WSW 8.1 mph - N/A   Clear
11:20 PM 35.6 °F 29.2 °F 33.8 °F 93% 30.15 in - WSW 8.1 mph - N/A   Clear
11:50 PM 33.8 °F 29.6 °F 33.8 °F 100% 30.18 in 6.2 mi WSW 4.6 mph - N/A   Scattered Clouds